Theta_e
316 316 317 317 317 316 316 316 316 316 316 316 317 317 316 317 317 316 314 314 317 318 320 325 326 324 321 319 323 325 328 326 326 324 320 309 311 304 303 305 302 301 302 301 299
316 316 317 317 317 316 316 316 316 316 316 317 317 316 315 316 317 316 314 315 318 319 321 326 326 324 321 319 319 326 326 326 318 317 316 310 311 306 306 305 302 300 299 299 299
316 316 317 317 317 317 317 317 316 315 316 316 315 315 315 318 318 315 314 315 318 321 321 325 325 322 321 318 315 317 323 316 312 311 311 309 307 305 308 309 305 303 300 300 300
314 316 317 317 317 317 317 317 316 315 316 316 314 314 315 318 321 315 314 314 316 321 323 323 323 323 321 320 314 318 311 312 309 306 308 310 306 306 306 305 303 302 300 300 300
315 315 316 317 317 317 317 317 316 315 316 315 315 314 315 316 315 314 314 315 315 317 322 323 323 321 321 316 314 316 310 307 306 306 306 306 307 306 303 301 301 300 299 300 300
315 315 315 316 317 317 317 317 317 315 316 316 315 314 315 317 314 314 314 315 316 316 319 321 321 319 314 312 314 310 309 307 306 306 305 308 305 305 302 300 300 299 300 300 300
315 315 315 315 317 317 317 317 317 316 316 316 315 314 314 314 314 313 313 314 315 317 318 319 318 317 313 311 308 309 312 309 308 307 306 306 307 307 302 300 300 300 300 300 299
316 315 315 315 315 317 317 317 318 316 315 315 314 313 314 313 313 313 313 314 315 317 318 317 315 314 311 309 310 313 314 317 309 307 304 307 315 306 301 301 301 300 300 300 299
315 316 315 316 315 316 318 317 318 316 314 315 313 313 314 313 313 313 313 314 314 314 314 314 313 311 310 316 317 315 317 316 313 307 307 308 313 305 301 301 302 300 300 300 300
315 315 316 315 315 316 318 318 318 314 314 314 314 314 313 313 313 313 313 313 314 314 314 314 314 317 316 317 317 315 315 313 314 310 307 309 311 307 301 301 303 301 300 300 300
316 315 316 316 316 316 318 317 316 316 315 315 314 313 313 313 313 313 312 313 313 315 317 314 318 318 315 312 311 312 313 313 312 309 309 311 311 310 305 302 303 302 300 299 300
316 315 315 316 316 316 317 317 316 316 318 315 314 313 313 313 313 312 312 313 314 317 315 317 318 312 309 309 310 311 312 313 310 308 308 310 310 310 307 304 303 302 301 300 299
316 316 315 316 315 316 317 317 317 315 316 314 313 313 313 313 312 312 312 313 315 316 316 318 314 308 310 310 311 311 312 311 309 308 308 308 313 309 306 304 302 302 301 300 299
321 316 315 315 316 317 317 317 316 315 317 315 313 313 312 312 313 311 312 312 312 315 314 314 309 310 311 311 310 313 307 308 309 311 316 309 317 313 309 306 303 302 301 300 298
323 317 315 315 315 317 317 317 315 315 319 314 313 312 312 313 311 311 312 313 315 312 313 313 310 310 311 310 307 310 307 309 310 312 313 313 315 316 307 310 308 304 302 300 299
323 321 317 315 315 317 318 316 316 318 319 316 313 313 314 313 312 311 311 312 309 312 311 310 306 307 308 305 305 307 309 310 310 313 318 313 313 316 314 312 308 306 303 301 299
323 323 319 315 315 316 317 316 318 319 315 316 315 314 314 314 313 312 313 314 315 316 315 311 309 306 305 308 307 308 311 319 320 320 318 310 311 316 312 308 307 306 303 301 299
323 323 322 317 315 316 317 317 318 316 316 314 314 313 315 314 313 313 314 314 311 312 315 316 315 309 304 307 309 309 311 316 318 318 317 307 315 317 309 303 303 301 302 301 299
322 323 321 319 315 315 317 319 319 317 316 316 314 316 316 314 314 314 314 315 313 312 316 315 315 304 303 303 306 309 313 308 312 310 314 316 314 310 305 304 301 301 300 300 299
321 323 321 318 315 314 319 318 317 313 314 315 318 316 318 316 315 315 315 312 312 309 309 313 314 306 304 303 304 306 306 313 313 322 318 316 315 317 310 310 306 302 301 301 299
321 321 319 317 314 315 319 318 316 313 314 316 317 317 317 316 316 316 316 311 310 308 308 311 313 309 306 308 311 307 309 308 310 312 318 317 317 315 315 312 310 305 302 301 299
321 322 316 314 315 314 317 316 314 316 313 315 315 316 317 316 317 316 317 313 308 309 311 309 312 313 311 304 303 305 308 310 317 317 310 315 319 309 311 310 309 307 303 301 299
318 316 314 313 319 316 314 315 314 316 316 316 317 316 314 317 318 316 314 308 307 308 310 310 312 314 311 308 305 307 307 307 308 310 316 321 320 306 306 305 305 306 304 301 299
316 321 314 313 312 316 316 316 316 314 316 314 315 314 315 316 313 316 314 309 306 307 307 308 312 314 317 314 312 310 307 306 310 316 318 314 316 314 310 308 306 305 304 302 299
315 316 314 318 315 314 314 315 316 316 314 314 314 316 317 318 316 316 313 309 306 310 307 310 313 311 311 310 308 310 310 306 308 312 315 316 315 315 314 313 309 307 305 302 300
316 314 310 312 310 313 313 315 315 315 315 315 316 317 316 317 317 318 315 313 315 308 309 307 314 308 312 308 308 309 310 310 308 309 310 309 310 312 312 311 308 307 304 302 300
317 314 312 311 311 314 316 316 315 315 314 313 315 316 315 315 314 312 312 310 312 313 311 311 312 311 316 309 309 313 312 312 310 308 310 312 315 314 310 307 307 307 305 303 302
Wind_Speed
6 5 3 3 2 2 2 2 1 1 1 1 3 3 4 4 1 2 3 6 4 0 6 7 5 3 1 4 4 1 4 2 2 3 5 10 6 3 4 8 5 3 5 12 10
6 5 3 2 1 1 2 3 3 3 3 2 3 5 4 2 3 2 6 6 3 1 6 8 4 3 3 3 4 2 2 3 3 2 3 11 5 8 7 10 7 11 12 12 8
6 5 4 2 1 1 2 3 4 4 4 3 3 5 4 2 4 0 7 4 3 2 7 7 5 3 4 4 6 4 3 4 4 3 8 9 8 4 7 5 6 13 14 11 7
7 5 4 3 3 3 3 4 4 5 4 4 4 5 1 2 1 3 7 3 1 2 5 6 4 3 3 3 3 3 6 3 4 6 6 8 9 6 2 3 7 14 14 10 6
7 7 5 4 4 4 4 3 4 5 5 4 4 4 1 1 2 4 5 4 1 3 6 5 4 4 4 5 3 6 5 6 7 8 8 8 5 4 6 8 13 14 11 10 6
7 7 6 5 4 4 5 5 4 4 5 4 3 4 1 2 1 4 7 4 2 2 6 6 3 9 10 4 3 5 9 10 5 6 6 5 5 4 8 11 12 12 10 8 5
7 8 7 7 6 6 5 5 5 5 4 4 2 3 1 1 1 2 3 5 5 3 5 7 10 2 7 8 9 10 7 6 5 4 3 4 5 6 12 14 12 11 10 8 5
8 8 8 8 7 6 6 5 5 5 4 3 2 1 1 3 2 1 4 6 8 8 9 8 5 10 5 13 5 3 4 3 5 6 3 3 2 6 13 15 13 11 10 8 6
9 9 9 9 8 6 6 5 5 5 3 3 2 1 2 3 3 3 2 5 8 8 8 6 3 7 5 4 4 3 2 1 4 7 4 6 0 6 13 14 13 13 11 9 7
8 8 9 9 8 6 5 4 4 3 4 3 5 2 3 3 4 3 5 5 2 3 3 1 3 3 3 4 3 2 2 2 3 6 7 6 10 6 13 15 14 13 12 11 9
8 8 9 9 9 5 2 2 1 1 5 3 2 3 4 5 5 2 5 5 3 2 2 1 4 2 2 3 2 1 2 4 1 2 4 7 10 8 14 16 15 15 14 13 11
8 7 7 8 7 3 1 1 1 1 3 7 7 4 5 7 2 3 5 5 3 3 2 4 1 3 5 3 1 2 4 2 2 2 4 5 11 8 12 16 17 16 16 15 12
8 7 6 6 2 2 4 2 1 3 4 1 3 3 3 7 2 3 5 3 1 3 2 4 4 6 2 2 3 3 5 2 4 1 4 7 4 4 6 11 11 17 16 15 15
8 8 6 3 3 3 3 1 1 1 3 3 1 1 2 4 1 3 5 2 1 2 2 1 3 3 3 2 2 5 2 1 3 4 2 2 2 4 6 7 13 16 20 19 17
7 7 5 3 2 4 2 0 1 1 3 3 3 2 4 2 4 1 3 1 2 3 3 4 3 3 4 2 1 3 0 2 3 4 4 3 4 5 2 6 12 18 20 20 19
7 7 4 1 2 4 3 2 2 4 3 3 3 2 4 2 2 3 2 2 4 2 3 3 1 2 3 3 2 7 2 3 3 3 4 3 3 5 5 3 5 12 19 20 20
9 7 4 2 3 6 4 4 4 4 2 3 2 4 3 4 4 4 3 4 3 3 4 2 2 2 1 3 4 3 3 2 3 3 2 2 4 3 6 5 4 8 17 20 20
10 8 6 4 5 7 6 4 6 2 2 2 2 3 4 5 3 4 4 4 5 3 2 3 3 2 1 2 3 1 3 3 4 3 3 2 4 2 3 3 7 6 8 19 21
10 8 7 5 6 9 8 6 3 4 3 5 3 4 4 3 2 4 6 4 2 9 5 2 2 2 3 1 2 4 3 2 1 1 4 2 4 5 5 7 9 11 12 21 22
9 6 8 6 7 10 6 4 3 2 3 2 3 3 3 3 4 4 5 2 3 4 2 3 2 1 2 1 3 1 2 2 2 3 4 3 5 4 8 13 13 14 19 21 21
6 3 6 9 11 8 8 6 4 5 4 4 2 2 3 4 6 4 1 2 2 5 3 3 2 3 1 5 2 3 3 1 2 2 3 4 2 1 8 11 14 19 21 22 23
8 4 6 13 8 3 7 5 4 4 5 4 3 4 4 4 5 4 3 2 2 7 6 4 1 3 1 2 2 3 2 4 2 3 1 2 6 2 3 7 10 13 19 21 22
4 3 6 17 6 6 2 3 4 5 6 5 5 5 4 4 4 4 2 1 3 5 4 7 3 2 3 3 2 5 4 3 2 1 7 3 3 1 4 7 11 14 15 20 22
5 4 5 10 5 6 7 5 6 8 6 5 2 3 3 5 3 1 4 2 2 2 2 5 3 5 6 2 3 4 6 9 8 4 4 11 21 10 9 13 16 18 18 20 23
6 3 6 5 8 9 7 3 10 8 6 8 5 10 8 6 4 5 3 3 2 4 2 3 5 5 8 7 5 7 7 13 13 17 10 17 15 18 13 14 20 21 19 21 23
6 4 4 1 1 13 7 8 9 6 6 6 8 8 11 10 9 7 6 5 5 6 6 3 2 3 4 1 7 7 13 17 19 17 19 21 27 22 27 22 19 20 21 25 26
16 7 4 3 3 5 7 16 12 10 7 6 10 8 8 10 9 3 4 1 2 5 11 6 5 4 5 2 2 8 13 15 8 10 10 10 14 7 5 9 14 18 23 27 28
Wind_Direction
27 30 31 32 43 34 32 22 23 353 303 305 318 336 352 350 20 103 21 349 355 227 168 164 163 146 115 67 66 111 232 222 147 178 120 156 146 108 118 123 103 86 110 132 147
25 20 19 17 16 348 351 347 340 331 330 324 327 331 341 11 143 88 348 350 349 198 178 177 178 164 72 49 18 341 269 68 41 70 134 153 167 143 155 140 105 111 123 134 131
16 18 7 346 326 296 313 330 330 330 329 331 328 338 337 99 150 336 348 349 14 170 184 196 176 127 78 50 18 19 41 112 47 78 137 143 137 148 160 182 166 164 152 146 138
9 6 358 335 309 292 291 314 317 324 326 326 332 346 23 116 263 328 351 346 351 158 170 178 163 99 78 82 43 119 72 83 103 105 131 147 136 128 143 101 146 155 150 148 135
4 357 345 330 307 287 279 292 308 317 316 319 328 344 94 129 85 345 2 5 302 203 198 198 194 133 112 104 94 88 120 84 105 108 112 128 123 130 127 119 137 145 149 151 138
350 349 341 324 307 287 278 286 296 303 308 303 318 329 0 229 240 7 19 7 15 201 208 193 168 128 104 76 18 113 118 116 115 119 124 150 146 177 166 151 148 156 159 159 145
337 339 340 329 310 297 275 274 291 293 299 290 297 318 4 142 190 28 20 52 65 98 173 147 135 102 119 113 119 132 119 135 149 148 127 163 188 217 166 167 168 171 171 168 174
332 334 332 332 323 306 288 272 283 285 287 263 281 304 114 177 165 169 51 62 74 91 121 122 113 109 84 121 123 182 206 210 152 181 155 227 104 152 169 177 184 182 185 182 197
337 331 329 331 327 307 288 278 279 277 260 218 258 182 146 192 188 205 172 107 96 101 100 103 107 95 131 195 167 186 311 257 167 198 167 228 353 147 180 196 196 196 194 200 206
334 332 328 328 329 316 294 281 274 250 231 241 232 234 194 187 185 182 183 173 144 130 101 92 101 151 170 238 336 325 268 228 285 160 215 220 254 183 193 204 205 203 201 209 212
331 333 330 326 330 329 300 293 264 241 223 215 171 140 146 166 164 181 186 178 175 212 233 88 242 299 33 37 12 346 279 283 172 124 254 250 264 232 207 210 212 211 211 214 216
324 330 330 330 341 347 14 120 85 211 289 245 227 215 175 175 155 184 172 187 204 236 222 208 278 93 104 111 274 263 282 276 161 137 242 272 271 250 217 221 220 217 216 216 213
321 328 333 339 10 83 108 121 103 335 271 326 211 194 192 192 174 174 180 177 188 203 245 284 87 145 188 165 253 261 279 275 315 192 236 288 249 200 212 221 220 222 221 219 216
315 327 340 353 115 127 127 151 267 359 268 121 151 205 174 164 140 170 176 177 129 221 148 53 129 195 187 239 251 289 78 282 266 277 334 317 360 193 192 216 215 216 213 215 214
298 319 342 22 123 144 167 190 160 118 268 103 125 157 159 180 126 58 169 151 217 144 235 84 169 189 232 69 210 35 7 284 266 266 281 159 260 115 207 237 213 211 210 210 212
269 300 322 334 184 175 166 146 144 227 246 138 134 166 175 149 122 128 110 112 113 125 50 75 79 5 32 87 77 134 205 230 233 241 229 100 322 163 191 177 152 199 204 205 206
247 269 297 262 197 181 165 146 210 241 118 153 191 174 216 174 165 174 166 179 225 221 202 159 145 111 156 197 141 216 264 266 220 218 3 123 260 301 183 178 186 189 203 202 204
244 248 268 251 199 179 156 195 225 47 224 100 140 161 200 175 183 169 163 216 205 198 255 264 202 198 56 321 349 188 303 314 296 315 346 161 231 137 173 169 204 213 211 200 202
235 244 264 247 196 178 185 212 226 197 129 165 151 218 198 205 282 213 221 211 186 197 227 212 168 94 22 352 315 129 222 37 279 194 274 234 234 199 213 228 208 214 203 201 203
218 222 245 226 191 174 206 224 221 215 147 172 235 220 227 179 216 218 200 148 166 183 292 141 228 73 90 264 66 292 68 218 179 294 279 227 274 257 206 224 205 209 207 205 204
189 178 231 201 172 187 217 213 206 225 197 199 211 217 231 195 215 221 229 152 197 142 156 177 249 112 185 203 213 155 203 186 315 283 287 308 266 163 185 198 202 210 209 205 203
169 197 203 173 187 218 214 196 192 192 183 212 224 219 219 196 208 233 248 293 164 163 165 149 286 224 155 86 331 301 272 250 233 180 246 310 273 151 171 191 210 209 209 209 209
179 186 191 182 215 209 194 226 222 194 195 187 221 215 182 208 227 221 205 69 185 189 173 174 182 251 178 176 187 240 201 181 84 135 219 225 263 108 209 225 224 218 212 210 208
170 190 177 202 242 246 194 214 205 217 226 184 181 154 168 212 200 232 205 155 216 230 200 176 194 232 264 334 111 200 197 209 213 221 223 233 274 243 224 227 223 222 217 212 211
202 206 176 192 218 214 213 217 205 201 218 195 193 220 210 218 185 220 166 157 179 186 192 229 240 217 260 240 210 251 217 192 207 231 236 276 274 276 278 241 231 226 215 210 210
183 193 182 161 174 207 195 213 205 199 191 197 220 212 215 224 228 254 179 208 211 175 196 197 216 180 266 211 222 255 246 232 229 249 261 274 278 278 275 256 250 228 214 214 215
204 184 163 146 170 194 217 223 213 213 220 237 208 209 210 229 235 239 217 32 199 187 187 184 185 183 268 140 242 261 243 217 205 221 225 244 257 271 249 242 239 231 223 223 222